STARLINK-34076 (63915 NORAD) Tracking and Keplerian Element Data

This shows tracking and keplerian element data for the satellite.

Feedback or suggestion? Click here.




ElementValue
Catalog63915
NameSTARLINK-34076
Epoch Orbit3560
Epoch Day354.08156151
Epoch Year2025
RAAN265.7265
Inclination43.0024
Eccentricity0.0001392
Argument of Perigee293.6039
Mean Anonmoly66.4666
Mean Motion15.27563143
Decay Rate0.00022972
L11 63915U 25095AB 25354.08156151 .00022972 00000+0 84215-3 0 9995
L22 63915 43.0024 265.7265 0001392 293.6039 66.4666 15.27563143 35604



Live tracking and technical data element details for STARLINK-34076 (NORAD 63915). STARLINK-34076 can be tracked NOW for your location showing map with azimuth and elevation plus other details from your city location.







IsCatalogInMostPopularTable: catalog: 63915, numindb: 14
Update: records affected: 1



GetName: 63915 STARLINK-34076

Hit Count: updated at: Wed, 15 Apr 2026 01:39:05 GMT